Weather History for Minot AFB, ND

Change the Weather History Date:

Wednesday, June 26, 2013

  Actual Average Record
Temperature  
Mean Temperature 72 °F -  
Max Temperature 84 °F 75 °F 89 °F (1997)
Min Temperature 59 °F 53 °F 48 °F (2000)
Cooling Degree Days 6    
Growing Degree Days 22 (Base 50)    
Moisture  
Dew Point 59 °F    
Average Humidity 67    
Maximum Humidity 100    
Minimum Humidity 33    
Precipitation  
Precipitation 0.00 in - - ()
Sea Level Pressure  
Sea Level Pressure 29.76 in    
Wind  
Wind Speed 7 mph (West)    
Max Wind Speed 18 mph    
Max Gust Speed 28 mph    
Visibility 10 miles    
Events Rain    
Averages and records for this station are not official NWS values.
T = Trace of Precipitation, MM = Missing Value Source: NWS Daily Summary

Daily Weather History Graph

Daily Weather History Graph

Search for Another Location

Airport:

Trip Planner

Search our weather history database for the weather conditions in past years. The results will help you decide how hot, cold, wet, or windy it might be!

Date:

Astronomy

Jun. 26, 2013 Rise Set
Actual Time 5:45 AM CDT 9:50 PM CDT
Civil Twilight 5:03 AM CDT 10:32 PM CDT
Nautical Twilight 4:04 AM CDT 11:31 PM CDT
Astronomical Twilight 2:14 AM CDT 1:20 AM CDT
Moon 11:52 PM CDT (6/26) 9:59 AM CDT (6/26)
Length of Visible Light 17h 29m
Length of Day
16h 05m
Waning Gibbous, 85% of the Moon is Illuminated
Jun 26
Waning Gibbous
Jun 29
Last Quarter
Jul 8
New
Jul 15
First Quarter
Jul 22
Full

Hourly Weather History & Observations

Time (CDT) Temp. Heat Index Dew Point Humidity Pressure Visibility Wind Dir Wind Speed Gust Speed Precip Events Conditions
12:55 AM 64.8 °F - 63.5 °F 96% 29.68 in 10.0 mi North 4.6 mph - N/A   Clear
1:55 AM 63.7 °F - 62.8 °F 97% 29.71 in 9.0 mi North 2.3 mph - N/A   Partly Cloudy
2:55 AM 62.6 °F - 62.6 °F 100% 29.71 in 9.0 mi West 2.3 mph - N/A   Mostly Cloudy
3:30 AM 62.6 °F - 62.6 °F 100% 29.71 in 9.0 mi West 2.3 mph - N/A   Clear
3:55 AM 62.1 °F - 61.7 °F 99% 29.70 in 8.0 mi West 2.3 mph - N/A   Clear
4:55 AM 61.0 °F - 60.6 °F 99% 29.71 in 7.0 mi WSW 3.5 mph - N/A   Clear
5:55 AM 59.0 °F - 58.8 °F 99% 29.73 in 6.0 mi SSW 2.3 mph - N/A   Clear
6:55 AM 62.8 °F - 61.5 °F 96% 29.73 in 10.0 mi SW 4.6 mph - N/A   Clear
7:55 AM 67.5 °F - 61.5 °F 81% 29.73 in 10.0 mi WSW 6.9 mph - N/A   Clear
8:55 AM 71.2 °F - 61.0 °F 70% 29.75 in 10.0 mi WSW 11.5 mph - N/A   Clear
9:55 AM 74.3 °F - 60.8 °F 63% 29.75 in 10.0 mi WSW 13.8 mph - N/A   Scattered Clouds
10:55 AM 75.0 °F - 61.5 °F 63% 29.76 in 10.0 mi WSW 12.7 mph - N/A   Mostly Cloudy
11:16 AM 73.4 °F - 60.8 °F 65% 29.78 in 10.0 mi West 12.7 mph - N/A Rain Light Rain
11:31 AM 73.4 °F - 60.8 °F 65% 29.78 in 10.0 mi West 11.5 mph - N/A   Mostly Cloudy
11:55 AM 73.0 °F - 61.5 °F 67% 29.78 in 10.0 mi West 8.1 mph - N/A   Mostly Cloudy
12:55 PM 78.8 °F - 53.6 °F 42% 29.77 in 10.0 mi WNW 9.2 mph 17.3 mph N/A   Scattered Clouds
1:55 PM 78.8 °F - 55.4 °F 44% 29.78 in 10.0 mi West 9.2 mph - N/A   Partly Cloudy
2:55 PM 82.4 °F 81.4 °F 53.6 °F 37% 29.76 in 10.0 mi WSW 8.1 mph 17.3 mph N/A   Partly Cloudy
3:57 PM 82.2 °F - 52.9 °F 36% 29.76 in 10.0 mi West 15.0 mph 20.7 mph N/A   Mostly Cloudy
4:29 PM 84.2 °F - 51.8 °F 33% 29.76 in 10.0 mi West 18.4 mph 27.6 mph N/A   Partly Cloudy
4:57 PM 82.0 °F 81.6 °F 56.3 °F 41% 29.77 in 10.0 mi WNW 16.1 mph 26.5 mph N/A   Partly Cloudy
5:57 PM 80.4 °F 80.2 °F 54.1 °F 40% 29.78 in 10.0 mi West 17.3 mph 25.3 mph N/A   Clear
6:57 PM 79.9 °F - 54.5 °F 41% 29.78 in 10.0 mi West 15.0 mph 20.7 mph N/A   Scattered Clouds
7:57 PM 77.2 °F - 55.4 °F 47% 29.79 in 10.0 mi West 15.0 mph - N/A   Scattered Clouds
8:57 PM 76.1 °F - 56.8 °F 51% 29.79 in 10.0 mi West 10.4 mph - N/A   Partly Cloudy
9:57 PM 69.1 °F - 59.0 °F 70% 29.82 in 10.0 mi WSW 6.9 mph - N/A   Clear
10:57 PM 68.0 °F - 57.7 °F 70% 29.85 in 10.0 mi WSW 8.1 mph - N/A   Clear
11:55 PM 67.3 °F - 57.0 °F 70% 29.86 in 10.0 mi West 9.2 mph - N/A   Partly Cloudy